Location: Little Bennett Regional Park
(39.2840°N, 77.2890°W)
Time: 07:08:02
(UTC-04:00)

Daily predictions for brighter satellites

Satellite Brightness Start Highest point End
(mag) Time Altitude Azimuth Time Altitude Azimuth Time Altitude Azimuth
Resurs 1-3 4.2 20:56:14 10° S 21:00:34 59° W 21:04:54 10° NNW
Cosmos 1697 Rocket 4.3 20:57:34 10° N 21:01:40 20° NE 21:05:44 10° E
Cosmos 2074 Rocket 4.1 20:56:41 10° N 21:02:59 88° W 21:09:16 10° S
Aureole 1 Rocket 4.0 21:01:51 10° SW 21:04:46 36° WNW 21:07:34 10° N
Helios 1A 3.0 21:02:45 10° SSE 21:06:56 68° ENE 21:11:06 10° N
Cosmos 1666 3.1 21:05:54 10° NNW 21:09:37 65° W 21:13:19 10° S
Cosmos 2184 Rocket 4.2 21:04:34 10° N 21:10:55 80° W 21:17:09 10° S
CZ-4B DEB 2.9 21:08:47 10° SSE 21:11:40 50° ENE 21:14:35 10° N
Cosmos 2369 4.2 21:07:26 10° NNW 21:12:56 46° ENE 21:18:16 11° SE
Spot 2 Rocket 4.5 21:08:49 10° S 21:13:38 47° W 21:18:30 10° NNW
Helios 1B rocket 2.4 21:10:22 10° NNE 21:14:32 78° ESE 21:18:39 10° S
Cosmos 1833 Rocket 3.3 21:10:14 10° SSE 21:15:15 35° ESE 21:20:18 10° NE
Meteor 2-9 Rocket 4.3 21:12:06 10° N 21:17:40 84° W 21:23:23 10° S
NOSS 8 (F) 4.4 21:14:31 10° SSW 21:18:04 89° ESE 21:21:39 10° NE
Cosmos 1624 Rocket 4.0 21:14:41 10° NNW 21:20:00 78° ENE 21:25:19 10° SSE
Cosmos 921 Rocket 3.5 21:16:46 10° N 21:21:04 46° ENE 21:24:51 12° SE
Cosmos 2228 4.2 21:19:00 10° NNE 21:22:33 25° ENE 21:25:24 13° SE
Meteor 1-15 Rocket 4.2 21:17:02 10° N 21:22:37 72° E 21:28:09 10° SSE
Resurs 01 Rocket 3.6 21:20:26 10° SSW 21:24:15 28° W 21:28:05 10° NW
SJ-11-01 4.4 21:24:01 10° S 21:28:42 81° WSW 21:33:26 10° NNW
SPOT 5 4.1 21:25:57 12° ESE 21:28:49 23° ENE 21:32:16 10° NNE
H-2A R/B 4.3 13:56:04 10° SW 21:29:03 44° SW 21:35:40 13° SSE
Okean 2 3.3 21:25:13 10° S 21:29:17 88° E 21:33:23 10° N
Nadezhda 1 Rocket 4.4 21:23:57 10° SSW 21:30:18 70° W 21:36:43 10° N
Envisat 3.6 21:31:10 10° S 21:36:08 57° W 21:41:09 10° NNW
Lacrosse 5 3.8 21:39:41 11° E 21:39:41 11° E 21:40:10 10° E
H-2A R/B 3.5 21:35:35 13° ESE 21:38:37 22° ENE 21:42:25 10° NNE
Cosmos 2056 Rocket 3.6 21:34:53 10° NNW 21:40:01 74° WSW 21:44:53 11° S
OAO 2 Rocket 4.3 21:36:55 10° W 21:41:15 31° SSW 21:44:10 17° SSE
Cosmos 1515 3.6 21:38:12 10° S 21:41:59 79° E 21:45:48 10° N
ISS -0.6 21:42:50 10° NW 21:44:19 12° NNW 21:45:48 10° NNE
SL-8 Rocket 4.4 21:39:28 10° N 21:45:30 46° ENE 21:49:59 18° SE
ARGOS 3.7 21:43:11 17° SE 21:46:57 43° ENE 21:52:03 10° N
Cosmos 839 Rocket 4.4 21:41:12 10° NNW 21:47:54 89° WSW 21:54:43 16° SSE
GPS 2-04 Rocket1 4.0 21:46:53 10° SSW 21:48:46 18° S 21:48:46 18° S
Cosmos 1437 Rocket 3.3 21:45:55 10° NNW 21:49:43 56° W 21:53:28 11° S
Cosmos 1892 Rocket 3.5 21:46:22 10° S 21:50:47 89° W 21:55:12 10° N
Cosmos 1980 Rocket 3.4 21:47:07 10° N 21:52:02 29° ENE 21:55:24 17° ESE
Cosmos 1602 Rocket 4.4 21:53:36 23° SE 21:55:20 31° E 21:59:08 10° NNE
Cosmos 2154 Rocket 4.4 21:49:22 10° NNW 21:55:40 67° W 22:01:56 10° S
MetOp-B 4.2 21:54:11 19° SSE 21:58:04 68° ENE 22:03:24 10° N
Hubble Space Telescope 2.4 21:56:15 10° SW 21:58:52 17° S 21:58:52 17° S
Cosmos 1606 Rocket 4.1 21:57:07 10° NNW 22:01:20 55° W 22:05:12 12° S
CZ-3A R/B 2.0 21:58:56 10° WSW 22:02:27 33° NW 22:04:03 10° NNE
Cosmos 2322 Rocket 4.3 22:01:35 10° NNE 22:04:45 15° NE 22:07:54 10° E
ERS-1 Rocket 3.1 22:01:26 16° S 22:05:27 73° WSW 22:10:30 10° NNW
Meteor 1-4 Rocket 2.8 22:03:21 10° N 22:06:48 48° ENE 22:07:49 35° SE
Cosmos 1726 Rocket 4.1 22:05:13 10° NNW 22:09:26 54° W 22:12:50 15° SSW
YAOGAN 6 4.0 22:07:41 12° SSW 22:10:32 32° W 22:13:44 10° NNW
NOAA 11 4.2 22:06:32 19° SSE 22:10:32 84° WSW 22:16:00 10° NNW
Cosmos 1452 Rocket 3.5 22:06:21 10° NNW 22:11:40 86° ENE 22:14:43 26° SSE
COSMOS 2487 4.3 22:08:40 10° SW 22:11:54 32° WNW 22:15:09 10° N
Tiangong 2 1.5 22:13:07 10° WNW 22:16:17 58° NNE 22:17:23 35° ENE
Nimbus 7 Rocket 4.4 22:18:22 10° NNE 22:24:26 70° ESE 22:28:50 19° S
Cosmos 1766 3.8 22:21:24 10° N 22:25:05 40° E 22:25:39 38° ESE
Cosmos 1953 4.2 22:24:39 10° NNE 22:27:21 17° ENE 22:27:32 17° ENE
Meteor 1-21 4.5 22:25:57 31° SSE 22:28:27 52° E 22:34:00 10° NNE
USA 245 2.9 22:29:30 48° NW 22:29:30 48° NW 22:31:16 10° NNW
USA 229 DEB 4.0 22:21:56 10° NNW 22:29:04 64° NE 22:33:04 28° SE
Landsat 7 4.3 22:27:34 34° ESE 22:29:07 46° ENE 22:33:40 10° N
USA 229 4.0 22:22:02 10° NNW 22:29:09 63° NE 22:33:10 28° SE
SPOT 1/Viking Rocket 3.5 22:27:59 33° SSE 22:30:19 74° ENE 22:35:28 10° N
Cosmos 2082 Rocket 3.1 22:24:57 10° SW 22:30:27 50° WNW 22:35:58 10° NNE
Cosmos 158 Rocket 3.9 22:31:05 21° S 22:34:37 78° ESE 22:40:01 10° NNE
Cosmos 2058 Rocket 4.2 22:30:34 10° NNW 22:34:42 39° W 22:37:34 18° SSW
Cosmos 1656 4.2 22:30:49 10° NNW 22:36:05 49° WSW 22:39:02 25° S
SL-08 R/B 4.4 22:31:16 10° N 22:37:26 86° E 22:40:35 31° S
Timation 2 Rocket 4.1 22:33:04 10° SSW 22:39:27 77° WNW 22:45:37 10° NNE
Cosmos 2218 Rocket 4.0 22:33:39 10° N 22:39:50 80° W 22:43:21 28° S
SL-08 RB Rocket 3.9 22:42:05 37° S 22:43:44 65° WSW 22:48:12 10° NNW
Terra 2.3 22:43:04 39° ESE 22:44:10 46° ENE 22:48:42 10° N
Cosmos 1697 Rocket 3.0 22:40:31 10° NNW 22:46:03 60° WSW 22:48:28 33° S
H-2A R/B 2.7 22:45:17 39° E 22:46:05 43° ENE 22:50:23 10° N
Lacrosse 5 rocket 3.4 22:43:39 10° NNW 22:47:31 25° NNE 22:49:48 18° ENE
Cosmos 1812 Rocket 3.5 22:45:56 10° N 22:50:26 85° E 22:51:20 56° SSE
Cosmos 1805 3.8 22:46:56 10° N 22:50:34 43° ENE 22:50:34 43° ENE
CZ-4B R/B 4.3 22:48:56 10° NNE 22:53:37 34° E 22:53:41 34° E
Meteor 2-21 Rocket 4.4 22:49:18 10° N 22:55:21 82° W 22:57:57 37° S
Cosmos 1626 Rocket 4.4 22:54:10 25° SW 22:56:20 46° W 23:00:31 10° N
Cosmos 494 Rocket 4.5 22:56:28 39° E 22:56:28 39° E 23:01:12 10° NE
Iridium 2 3.7 22:55:08 10° N 22:58:41 64° ENE 22:58:41 64° ENE
Cosmos 1833 Rocket 4.4 22:54:10 10° WSW 22:59:09 32° WNW 23:04:09 10° N
SL-16 R/B 3.1 22:54:43 10° N 22:59:58 37° ENE 23:01:37 30° E
Meteor 1-22 Rocket 4.5 22:56:40 10° NNW 23:01:56 59° W 23:04:07 34° SSW
Cosmos 2360 4.1 22:57:07 10° NNW 23:02:51 89° W 23:04:27 50° SSE
Nadezhda 3 Rocket 4.0 23:00:38 41° SSE 23:02:56 71° E 23:09:16 10° NNE
Cosmos 1544 3.2 22:59:58 10° N 23:03:12 66° NNE 23:03:12 66° NNE
SPOT 5 4.1 23:05:12 23° SW 23:06:45 29° W 23:10:35 10° NW
Cosmos 1825 Rocket 3.4 23:10:25 73° E 23:10:25 73° E 23:14:43 10° NNE
Cosmos 1953 Rocket 3.9 23:11:52 51° ENE 23:11:52 51° ENE 23:15:55 10° NNE
Cosmos 1758 3.5 23:08:15 10° N 23:11:51 59° NE 23:11:51 59° NE
Cosmos 1821 Rocket 4.2 23:10:06 10° N 23:16:19 57° E 23:17:49 46° SE
Cosmos 1271 Rocket 3.1 23:12:42 10° NNW 23:16:34 56° W 23:16:36 56° W
Spot 4 4.1 23:16:19 50° E 23:16:42 51° ENE 23:21:22 10° N
H-2A R/B 2.8 23:16:12 33° SW 23:17:43 42° W 23:22:32 10° NNW
Cosmos 1842 3.9 23:18:35 48° W 23:18:55 49° W 23:22:46 10° N
Lacrosse 5 1.7 23:18:42 44° SW 23:20:20 89° SE 23:25:26 10° NE
ISS -0.5 23:21:19 10° N 23:22:00 10° N 23:22:42 10° NNE
Cosmos-2242 4.1 23:23:02 10° N 23:26:24 34° ENE 23:26:24 34° ENE
Cosmos 2360 Rocket 3.5 23:30:02 10° N 23:34:55 29° ENE 23:36:19 26° E
Cosmos 1980 Rocket 3.0 23:30:54 10° NW 23:36:04 38° WSW 23:37:10 35° SW
CZ-4C R/B 4.3 23:38:56 40° NNE 23:38:56 40° NNE 23:41:30 10° N
Cosmos 1605 Rocket 4.4 23:33:23 10° N 23:39:12 44° ENE 23:40:00 42° E
Cosmos 1331 Rocket 3.8 23:34:28 10° NNW 23:39:39 90° SSW 23:39:53 82° SSE
USA 267 4.1 23:36:01 10° ENE 23:40:26 32° E 23:40:26 32° E
Cosmos 1535 Rocket 4.3 23:38:46 10° N 23:44:55 89° E 23:45:57 64° S
Cosmos 1110 Rocket 4.0 23:40:20 10° NNW 23:45:33 70° WSW 23:45:47 69° SW
SeaSat 1 4.5 23:44:24 16° ENE 23:46:02 18° NE 23:49:21 10° N
ATLAS CENTAUR R/B 2.4 23:44:07 10° NNW 23:46:29 38° NW 23:46:29 38° NW
Cosmos 2322 Rocket 2.0 23:43:50 10° NNW 23:49:35 87° WSW 23:50:04 76° S
Cosmos 1302 Rocket 4.1 23:45:20 10° NNW 23:50:36 65° ENE 23:50:45 64° E
Cosmos 389 Rocket 4.4 23:51:06 10° NNW 23:53:06 27° NW 23:53:06 27° NW
